sat.trackr.live / text

‹ back to catalog

STARLINK-34968

NORAD 65276 · 2025-184D

PAYLOAD ACTIVE UNKNOWN

§ Identity

Operator
Country
US
Launch date
2025-08-22
Launch site
AFWTR
Launch vehicle
Mass (kg)
RCS (m²)

Purposes: comms

External: N2YO · Heavens-Above · Gunter

§ Orbital elements

Epoch: 2026-05-25T03:16:00.417216Z

Period
95.64 min
Inclination
97.4480°
Eccentricity
0.0003108
Mean motion
15.05660374 rev/d
Perigee alt
547.3 km
Apogee alt
551.6 km
Semi-major
6,927.6 km
B*
3.9536e-4
RAAN
197.6440°
Arg perigee
127.5326°
Mean anomaly
232.6184°
Rev number
4,280

§ Raw data

STARLINK-349681 65276U 25184D   26145.13611594  .00005652  00000+0  39536-3 0  99902 65276  97.4480 197.6440 0003108 127.5326 232.6184 15.05660374 42806

JSON: /api/v1/satellites/65276 · /tle

For live sub-satellite position, see the globe view (requires WebGL).

§ Visibility from observer

Set your observer location to see the next 7 days of passes ≥ 10°. The values pass through the URL so the page stays shareable.

No JS? Fill the form by hand. The geolocation button needs JavaScript.